AWI877 KCWA-MYGF

Flight info

Callsign AWI877
Flight time N/A
Altitude 29000
Route BGOSH J89 BAE J101 OBK J89 IIU Q50 IBATE Q67 TONIO Q93 QUIWE/N0419F300 Q93 FISHO/N0423F290 Q93 GURGE/N0421F300 Q69 ISUZO Q93 PRMUS/N0424F290 Q89 MANLE Y185 SATOW
Aircraft B463/M-SDFGIRWY/LB1

Departure

Time N/A
Airport Central Wisconsin Airport (KCWA)

Arrival

Time 2026-04-30 22:27
Airport Grand Bahama International Airport (MYGF)
Time Latitude Longitude Altitude Speed Heading
2026-04-30 21:37 31.06083 -81.12634 28853 ft 454 kts 184°
2026-04-30 21:37 31.02935 -81.12269 28858 ft 454 kts 184°
2026-04-30 21:37 30.96647 -81.11527 28868 ft 455 kts 183°
2026-04-30 21:38 30.90349 -81.10749 28878 ft 454 kts 183°
2026-04-30 21:38 30.84073 -81.10006 28880 ft 454 kts 183°
2026-04-30 21:39 30.77774 -81.09231 28877 ft 454 kts 183°
2026-04-30 21:39 30.71482 -81.08479 28878 ft 455 kts 183°
2026-04-30 21:40 30.65198 -81.07721 28879 ft 454 kts 183°
2026-04-30 21:40 30.58951 -81.07476 28877 ft 445 kts 191°
2026-04-30 21:41 30.52799 -81.07874 28878 ft 441 kts 193°
2026-04-30 21:41 30.46665 -81.08349 28877 ft 442 kts 193°
2026-04-30 21:42 30.40515 -81.08751 28873 ft 443 kts 192°
2026-04-30 21:42 30.34361 -81.09111 28874 ft 443 kts 192°
2026-04-30 21:43 30.28199 -81.09475 28878 ft 443 kts 192°
2026-04-30 21:43 30.22042 -81.09852 28882 ft 443 kts 192°
2026-04-30 21:44 30.15895 -81.10242 28887 ft 442 kts 191°
2026-04-30 21:44 30.09773 -81.10580 28888 ft 443 kts 191°
2026-04-30 21:45 30.03586 -81.10951 28888 ft 443 kts 191°
2026-04-30 21:45 29.97423 -81.11291 28892 ft 443 kts 191°
2026-04-30 21:46 29.91307 -81.11655 28887 ft 442 kts 191°
2026-04-30 21:46 29.85146 -81.11972 28883 ft 446 kts 187°
2026-04-30 21:47 29.78917 -81.10875 28895 ft 463 kts 170°
2026-04-30 21:47 29.72830 -81.08282 28891 ft 469 kts 163°
2026-04-30 21:48 29.66832 -81.05295 28886 ft 469 kts 162°
2026-04-30 21:48 29.60848 -81.02363 28886 ft 467 kts 163°
2026-04-30 21:49 29.54850 -80.99537 28884 ft 466 kts 164°
2026-04-30 21:49 29.48836 -80.96738 28882 ft 466 kts 163°
2026-04-30 21:50 29.42858 -80.93891 28879 ft 466 kts 163°
2026-04-30 21:50 29.36860 -80.91082 28875 ft 465 kts 163°
2026-04-30 21:51 29.30883 -80.88262 28870 ft 465 kts 163°
2026-04-30 21:51 29.24904 -80.85460 28871 ft 464 kts 163°
2026-04-30 21:52 29.18936 -80.82663 28869 ft 464 kts 163°
2026-04-30 21:52 29.12972 -80.79856 28862 ft 463 kts 163°
2026-04-30 21:53 29.06994 -80.77079 28860 ft 463 kts 163°
2026-04-30 21:53 29.01039 -80.74279 28863 ft 463 kts 162°
2026-04-30 21:54 28.95074 -80.71482 28864 ft 463 kts 162°
2026-04-30 21:54 28.89141 -80.68586 28875 ft 466 kts 155°
2026-04-30 21:55 28.86456 -80.66483 28876 ft 473 kts 142°
2026-04-30 21:55 28.84153 -80.63783 28883 ft 477 kts 132°
2026-04-30 21:55 28.80323 -80.57641 28869 ft 479 kts 124°
2026-04-30 21:56 28.76745 -80.51174 28873 ft 479 kts 124°
2026-04-30 21:56 28.73165 -80.44843 28870 ft 477 kts 125°
2026-04-30 21:57 28.69482 -80.38560 28867 ft 477 kts 126°
2026-04-30 21:57 28.65756 -80.32303 28876 ft 477 kts 126°
2026-04-30 21:58 28.62036 -80.26049 28863 ft 476 kts 127°
2026-04-30 21:58 28.58335 -80.19806 28883 ft 476 kts 127°
2026-04-30 21:59 28.54631 -80.13564 28893 ft 475 kts 127°
2026-04-30 22:00 28.49055 -80.04261 28901 ft 474 kts 126°
2026-04-30 22:00 28.43483 -79.94969 28906 ft 474 kts 127°
2026-04-30 22:01 28.39772 -79.88784 28904 ft 474 kts 127°
2026-04-30 22:01 28.36071 -79.82592 28906 ft 473 kts 127°
2026-04-30 22:02 28.32352 -79.76435 28910 ft 473 kts 127°
2026-04-30 22:02 28.28665 -79.70249 28914 ft 472 kts 127°
2026-04-30 22:03 28.24957 -79.64110 28914 ft 472 kts 127°
2026-04-30 22:03 28.21243 -79.57945 28488 ft 476 kts 126°
2026-04-30 22:04 28.19408 -79.54858 28012 ft 468 kts 126°
2026-04-30 22:04 28.17604 -79.51860 27582 ft 464 kts 127°
2026-04-30 22:04 28.13934 -79.45823 26733 ft 459 kts 126°
2026-04-30 22:05 28.12167 -79.42881 26330 ft 457 kts 126°
2026-04-30 22:05 28.10385 -79.39912 25933 ft 454 kts 126°
2026-04-30 22:05 28.08618 -79.36970 25535 ft 452 kts 126°
2026-04-30 22:05 28.06848 -79.34032 25140 ft 449 kts 126°
2026-04-30 22:06 28.05087 -79.31118 24752 ft 447 kts 126°
2026-04-30 22:06 28.01582 -79.25350 23996 ft 443 kts 126°
2026-04-30 22:06 27.99839 -79.22490 23617 ft 440 kts 126°
2026-04-30 22:07 27.98103 -79.19649 23199 ft 438 kts 126°
2026-04-30 22:07 27.96373 -79.16833 22773 ft 434 kts 127°
2026-04-30 22:07 27.94468 -79.14206 22337 ft 428 kts 137°
2026-04-30 22:07 27.92194 -79.12083 21910 ft 422 kts 149°
2026-04-30 22:08 27.89660 -79.10455 21488 ft 416 kts 158°
2026-04-30 22:08 27.87025 -79.09163 21081 ft 412 kts 162°
2026-04-30 22:08 27.84350 -79.08052 20677 ft 407 kts 165°
2026-04-30 22:08 27.81676 -79.07035 20280 ft 405 kts 166°
2026-04-30 22:09 27.79011 -79.06049 19873 ft 401 kts 166°
2026-04-30 22:09 27.76359 -79.05067 19476 ft 400 kts 165°
2026-04-30 22:09 27.73733 -79.04073 19092 ft 397 kts 165°
2026-04-30 22:09 27.71122 -79.03071 18707 ft 395 kts 165°
2026-04-30 22:10 27.68530 -79.02072 18326 ft 393 kts 165°
2026-04-30 22:10 27.65949 -79.01070 17900 ft 391 kts 164°
2026-04-30 22:10 27.63404 -79.00057 17456 ft 387 kts 164°
2026-04-30 22:10 27.60868 -78.99062 17022 ft 384 kts 165°
2026-04-30 22:11 27.55870 -78.97127 16172 ft 376 kts 165°
2026-04-30 22:11 27.53409 -78.96165 15750 ft 374 kts 164°
2026-04-30 22:11 27.50963 -78.95200 15340 ft 370 kts 165°
2026-04-30 22:12 27.48537 -78.94262 15046 ft 369 kts 165°
2026-04-30 22:12 27.46936 -78.93651 14810 ft 367 kts 165°
2026-04-30 22:12 27.44530 -78.92709 14457 ft 365 kts 164°
2026-04-30 22:12 27.42142 -78.91768 14106 ft 362 kts 164°
2026-04-30 22:13 27.39772 -78.90846 13763 ft 359 kts 165°
2026-04-30 22:13 27.37417 -78.89935 13381 ft 357 kts 165°
2026-04-30 22:13 27.35077 -78.89017 12999 ft 354 kts 164°
2026-04-30 22:13 27.32756 -78.88095 12620 ft 352 kts 163°
2026-04-30 22:14 27.30453 -78.87180 12251 ft 350 kts 164°
2026-04-30 22:14 27.28158 -78.86289 11866 ft 348 kts 164°
2026-04-30 22:14 27.25879 -78.85404 11510 ft 345 kts 164°
2026-04-30 22:14 27.23621 -78.84524 11148 ft 343 kts 164°
2026-04-30 22:15 27.21374 -78.83653 10795 ft 340 kts 163°
2026-04-30 22:15 27.19141 -78.82792 10435 ft 338 kts 163°
2026-04-30 22:15 27.16918 -78.81942 10087 ft 336 kts 163°
2026-04-30 22:15 27.14754 -78.81115 9732 ft 329 kts 163°
2026-04-30 22:16 27.12589 -78.80269 9338 ft 321 kts 163°
2026-04-30 22:16 27.10526 -78.79465 8958 ft 314 kts 163°
2026-04-30 22:17 27.04480 -78.77155 7835 ft 299 kts 163°
2026-04-30 22:17 27.02500 -78.76394 7476 ft 295 kts 163°
2026-04-30 22:17 26.98690 -78.74924 6756 ft 288 kts 163°
2026-04-30 22:18 26.96802 -78.74194 6402 ft 286 kts 164°
2026-04-30 22:18 26.93067 -78.72751 5667 ft 282 kts 163°
2026-04-30 22:19 26.89394 -78.71305 4933 ft 278 kts 162°
2026-04-30 22:19 26.87578 -78.70594 4561 ft 276 kts 163°
2026-04-30 22:19 26.83973 -78.69193 3830 ft 272 kts 163°
2026-04-30 22:20 26.82188 -78.68506 3456 ft 270 kts 163°
2026-04-30 22:20 26.78648 -78.67158 2724 ft 267 kts 163°
2026-04-30 22:20 26.76898 -78.66494 2343 ft 265 kts 162°
2026-04-30 22:21 26.75158 -78.65831 1986 ft 263 kts 162°
2026-04-30 22:21 26.73440 -78.65169 1752 ft 257 kts 162°
2026-04-30 22:21 26.71781 -78.64526 1637 ft 247 kts 162°
2026-04-30 22:21 26.70201 -78.63917 1582 ft 234 kts 162°
2026-04-30 22:22 26.68703 -78.63338 1577 ft 222 kts 163°
2026-04-30 22:22 26.67281 -78.62787 1574 ft 211 kts 163°
2026-04-30 22:22 26.65924 -78.62266 1559 ft 202 kts 163°
2026-04-30 22:22 26.64630 -78.61768 1554 ft 190 kts 162°
2026-04-30 22:23 26.63460 -78.61315 1583 ft 163 kts 162°
2026-04-30 22:23 26.62492 -78.60945 1594 ft 134 kts 163°
2026-04-30 22:23 26.61629 -78.60642 1305 ft 124 kts 171°
2026-04-30 22:23 26.60839 -78.60770 1217 ft 120 kts 211°
2026-04-30 22:24 26.60214 -78.61370 1057 ft 117 kts 229°
2026-04-30 22:24 26.59764 -78.62108 947 ft 116 kts 236°
2026-04-30 22:24 26.59324 -78.62887 1000 ft 119 kts 232°
2026-04-30 22:24 26.58859 -78.63671 912 ft 125 kts 234°
2026-04-30 22:25 26.58399 -78.64522 793 ft 129 kts 239°
2026-04-30 22:25 26.57951 -78.65405 704 ft 132 kts 238°
2026-04-30 22:25 26.57520 -78.66293 505 ft 129 kts 239°
2026-04-30 22:25 26.57068 -78.67149 278 ft 125 kts 240°
2026-04-30 22:26 26.56277 -78.68747 15 ft 102 kts 242°
2026-04-30 22:26 26.55974 -78.69351 17 ft 77 kts 239°
2026-04-30 22:26 26.55747 -78.69799 16 ft 59 kts 240°
2026-04-30 22:27 26.55570 -78.70164 17 ft 49 kts 240°
2026-04-30 22:27 26.55412 -78.70474 17 ft 43 kts 243°
2026-04-30 22:27 26.55134 -78.71009 16 ft 32 kts 204°
2026-04-30 22:28 26.54973 -78.70803 16 ft 21 kts 91°
2026-04-30 22:28 26.54935 -78.70664 16 ft 18 kts 150°
2026-04-30 22:29 26.54838 -78.70513 16 ft 0 kts 122°